User: anonymous   Login
Location: York
(31.8935°S, 116.7682°E)
Time: 18:41:04
(UTC+08:00)
Language:

Tiros 1 - Orbit

View from above orbital plane
View from above orbital plane
View from above satellite
View from above satellite

Ground track
Ground track

The orbit data is extracted from the following two-line orbital elements,

1 00029U 60002B   21165.35767883 -.00000121  00000-0  13054-4 0  9993
2 00029  48.3810  40.5876 0024261 339.9708  20.0250 14.74433538271945
Epoch (UTC): 14 June 2021 08:35:03
Eccentricity: 0.0024261
inclination: 48.3810°
perigee height: 630 km
apogee height: 664 km
right ascension of ascending node: 40.5876°
argument of perigee: 339.9708°
revolutions per day: 14.74433538
mean anomaly at epoch: 20.0250°
orbit number at epoch: 27194

The dashed part of the orbit path shows where the satellite is in the earth's shadow,  

DLR